SL-16 R/B, 28353

Orbit data source: Space-Track

SL-16 R/B, 28353 is space debris in LEO originally from a launch on Thu, 10 Jun 2004 UTC launched from the Tyuratam Missile And Space Complex (TTMTR). Debris objects in space refer to the collection of defunct objects orbiting the Earth. Examples of debris include non-operational satellites, rocket bodies, and fragments generated from explosions, collisions, or faulty payload assembly.

Loading next visibility...
Identifier
28353, 2004-021B
Orbit
LEO
Country
Flag of CISCIS
Related business
Manufacturer
Yuzhnoe
Mission
Spacecraft
Bus & Motor
11S772, Unknown motor
Mass
9,000 kg wet, 9,000 kg dry
Launch date (UTC)
2004-06-10 (22 years ago)
Launch vehicle
Unknown
Launch site
Tyuratam Missile And Space Complex (TTMTR)
Object type
Payload
Rocket body
Debris
Shape & HBR
Cyl, 5.2 m
Radar Cross Section
37.829 m², Large (>1 m²)

Expand to show TLE details & history
Last TLE update: 7 hours ago

TLE from 7 hours ago
0 SL-16 R/B
1 28353U 04021B   26119.29925435 -.00000210  00000-0 -84287-4 0  9994
2 28353  70.9981 126.2871 0006912 305.6762  54.3716 14.14603218129997
Epoch: 2026-04-29T07:10Z
TLE epoch observation values (Epoch: 2026-04-29T07:10:55.575Z)
Latitude
-0.00008°
Longitude
161.2933°
Altitude
843.156 km
Speed
7.433 km/s
True Right ascension
08h 25m 08s
True Declination
0° 00' 00"
Sunlit
Object was in daylight at epoch
Visualization orbit readout
Latitude
Unknown
Longitude
Unknown
Altitude
Unknown
Speed
Unknown
Apparent Right ascension
Unknown
Apparent Declination
Unknown
Sunlit
N/A
Visualization observer readout
Local Sidereal Time
22:01:37
Azimuth
Unknown
Elevation
Unknown
Doppler factor
Unknown
Orbital elements
Apogee altitude
846.578 km
Perigee altitude
836.597 km
Semi-major axis
7,219.725 km
Eccentricity
0.00069
Inclination
70.9981°
RAAN
126.2871°
Arg. of periapsis
305.6762°
True anomaly
54.43601°
Mean anomaly
54.3716°
Eccentric anomaly
54.4038°
Mean motion
3.53804 °/min
Orbital period
101.75 mins
BSTAR
-0.000084287
Loading maneuver chart data...
Computing Atmospheric mass density...
Loading historical data...
Loading historical data...
Loading historical data...
Loading historical data...
Loading historical data...
Loading historical data...
Loading historical data...

Documentation

Showing up to 5 results
|